Location: College Park
(38.9810°N, 76.9370°W)
Time: 02:45:12
(UTC-05:00)

Vanguard 1 Rocket - All Passes

Search period start: 24 November 2017 00:00
Search period end: 04 December 2017 00:00
Orbit: 655 x 4222 km, 34.3° (Epoch: 23 November)

Date Brightness Start Highest point End Pass type
(mag) Time Alt. Az. Time Alt. Az. Time Alt. Az.
24 Nov - 00:16:59 10° W 00:43:23 78° S 01:03:30 10° ESE visible
24 Nov - 02:50:27 10° W 03:14:40 59° SSW 03:29:18 10° SE visible
24 Nov - 05:27:21 10° W 05:40:45 23° SW 05:49:53 10° S visible
24 Nov - 18:14:13 10° S 18:27:15 24° SE 18:44:20 10° E visible
24 Nov - 20:35:18 10° SW 20:55:17 57° SSE 21:20:10 10° E visible
24 Nov - 23:02:54 10° WSW 23:27:55 77° S 23:50:52 10° E visible
25 Nov - 01:34:48 10° W 02:00:55 70° SSW 02:18:22 10° ESE visible
25 Nov - 04:09:41 10° W 04:29:26 38° SW 04:41:40 10° SSE visible
25 Nov - 17:10:17 10° SE 17:15:43 12° ESE 17:21:52 10° ESE visible
25 Nov - 19:24:40 10° SSW 19:41:37 44° SE 20:04:53 10° ENE visible
25 Nov - 21:49:49 10° WSW 22:12:28 72° SSE 22:37:24 10° E visible
26 Nov - 00:19:52 10° W 00:46:06 77° S 01:06:34 10° ESE visible
26 Nov - 02:53:15 10° W 03:17:02 52° SW 03:31:59 10° SE visible
26 Nov - 05:31:44 10° W 05:42:41 18° WSW 05:50:52 10° SSW visible
26 Nov - 18:15:25 10° S 18:29:04 30° SE 18:48:12 10° E visible
26 Nov - 20:37:50 10° SW 20:57:35 63° SSE 21:23:05 10° E visible
26 Nov - 23:05:47 10° W 23:30:38 78° S 23:53:54 10° E visible
27 Nov - 01:37:37 10° W 02:03:27 65° SSW 02:21:14 10° SE visible
27 Nov - 04:12:55 10° W 04:31:27 31° SW 04:43:41 10° S visible
27 Nov - 17:08:37 10° SSE 17:17:30 17° ESE 17:28:52 10° E visible
27 Nov - 19:26:54 10° SSW 19:43:42 50° SE 20:07:53 10° ENE visible
27 Nov - 21:52:40 10° WSW 22:15:04 76° SSE 22:40:22 10° E visible
28 Nov - 00:22:46 10° W 00:48:46 74° SSW 01:09:33 10° ESE visible
28 Nov - 02:56:08 10° WNW 03:19:13 46° SW 03:34:26 10° SSE visible
28 Nov - 05:37:42 10° W 05:44:32 13° WSW 05:50:17 10° SW visible
28 Nov - 18:17:10 10° SSW 18:30:58 36° SE 18:51:36 10° E visible
28 Nov - 20:40:32 10° WSW 21:00:00 68° SSE 21:25:59 10° E visible
28 Nov - 23:08:45 10° W 23:33:20 78° S 23:56:54 10° ESE visible
29 Nov - 01:40:27 10° W 02:05:50 60° SSW 02:23:57 10° SE visible
29 Nov - 04:16:31 10° W 04:33:21 26° SW 04:45:16 10° S visible
29 Nov - 17:09:07 10° S 17:19:18 22° SE 17:33:37 10° E visible
29 Nov - 19:29:24 10° SW 19:45:55 57° SSE 20:10:46 10° E visible
29 Nov - 21:55:38 10° WSW 22:17:44 78° S 22:43:19 10° E visible
30 Nov - 00:25:41 10° W 00:51:19 70° SSW 01:12:24 10° ESE visible
30 Nov - 02:59:10 10° WNW 03:21:16 40° SW 03:36:37 10° SSE visible
30 Nov - 18:19:18 10° SSW 18:33:00 42° SE 18:54:41 10° ENE visible
30 Nov - 20:43:25 10° WSW 21:02:33 72° SSE 21:28:51 10° E visible
30 Nov - 23:11:45 10° W 23:36:01 77° S 23:59:50 10° ESE visible
01 Dec - 01:43:21 10° W 02:08:05 54° SW 02:26:27 10° SE visible
01 Dec - 04:20:46 10° W 04:35:10 20° SW 04:46:09 10° SSW visible
01 Dec - 17:10:29 10° S 17:21:13 27° SE 17:37:30 10° E visible
01 Dec - 19:32:07 10° SW 19:48:18 62° SSE 20:13:34 10° E visible
01 Dec - 21:58:40 10° W 22:20:26 78° S 22:46:14 10° E visible
02 Dec - 00:28:37 10° W 00:53:46 65° SSW 01:15:07 10° SE visible
02 Dec - 03:02:27 10° W 03:23:11 34° SW 03:38:26 10° S visible
02 Dec - 16:04:31 10° SSE 16:10:20 14° ESE 16:17:38 10° E daylight
02 Dec - 18:21:44 10° SSW 18:35:11 49° SE 18:57:36 10° ENE visible
02 Dec - 20:46:25 10° WSW 21:05:13 76° S 21:31:41 10° E visible
02 Dec - 23:14:46 10° W 23:38:38 74° SSW 00:02:39 10° ESE visible
03 Dec - 01:46:21 10° WNW 02:10:11 47° SW 02:28:42 10° SSE visible
03 Dec - 04:26:16 10° W 04:36:55 15° WSW 04:45:49 10° SSW visible
03 Dec - 17:12:24 10° SSW 17:23:16 33° SE 17:40:52 10° E visible
03 Dec - 19:34:58 10° WSW 19:50:50 68° SSE 20:16:21 10° E visible
03 Dec - 22:01:45 10° W 22:23:10 78° S 22:49:06 10° ESE visible
